�������l�o���
Date,Time,MP-1(��Sv/h),MP-2(��Sv/h),MP-3(��Sv/h),MP-4(��Sv/h),MP-5(��Sv/h),MP-6(��Sv/h),MP-7(��Sv/h),MP-8(��Sv/h),����,����(m/s),���J
2017/11/26,00:00,0.900,1.458,0.926,1.741,1.190,0.493,0.886,0.843,��쐼,4.1,��
2017/11/26,00:10,0.899,1.458,0.927,1.741,1.190,0.491,0.886,0.845,��쐼,4.1,��
2017/11/26,00:20,0.901,1.459,0.928,1.741,1.192,0.492,0.885,0.843,��쐼,5.1,��
2017/11/26,00:30,0.899,1.458,0.927,1.743,1.189,0.493,0.886,0.842,��쐼,5.4,��
2017/11/26,00:40,0.899,1.454,0.926,1.742,1.189,0.493,0.885,0.845,��,6.9,��
2017/11/26,00:50,0.902,1.458,0.927,1.742,1.189,0.492,0.886,0.843,��,6.3,��
2017/11/26,01:00,0.897,1.456,0.927,1.740,1.188,0.491,0.886,0.844,��,8.4,��
2017/11/26,01:10,0.900,1.459,0.927,1.741,1.189,0.491,0.886,0.843,��,9.5,��
2017/11/26,01:20,0.900,1.459,0.926,1.742,1.190,0.492,0.887,0.844,��,9.8,��
2017/11/26,01:30,0.900,1.458,0.927,1.741,1.189,0.492,0.885,0.844,��,10.2,��
2017/11/26,01:40,0.898,1.457,0.928,1.742,1.187,0.492,0.886,0.843,��,10.5,��
2017/11/26,01:50,0.900,1.459,0.927,1.739,1.192,0.494,0.885,0.843,��,10.9,��
2017/11/26,02:00,0.899,1.457,0.926,1.741,1.190,0.493,0.886,0.844,��,11.1,��
2017/11/26,02:10,0.899,1.460,0.926,1.744,1.189,0.494,0.888,0.845,��,10.2,��
2017/11/26,02:20,0.901,1.459,0.928,1.740,1.191,0.494,0.888,0.843,��,11.1,��
2017/11/26,02:30,0.900,1.459,0.927,1.741,1.190,0.493,0.888,0.844,��,10.2,��
2017/11/26,02:40,0.899,1.457,0.930,1.742,1.189,0.494,0.887,0.846,��,10.3,��
2017/11/26,02:50,0.900,1.458,0.925,1.743,1.190,0.495,0.887,0.845,��,9.9,��
2017/11/26,03:00,0.900,1.458,0.928,1.743,1.190,0.494,0.888,0.846,��,9.6,��
2017/11/26,03:10,0.900,1.460,0.928,1.743,1.189,0.493,0.888,0.844,��,9.5,��
2017/11/26,03:20,0.904,1.457,0.927,1.745,1.192,0.495,0.887,0.843,��,9.6,��
2017/11/26,03:30,0.901,1.459,0.928,1.744,1.189,0.492,0.889,0.845,��,9.5,��
2017/11/26,03:40,0.902,1.457,0.931,1.745,1.190,0.494,0.889,0.845,��,10.6,��
2017/11/26,03:50,0.901,1.458,0.927,1.742,1.193,0.494,0.889,0.846,��,10.7,��
2017/11/26,04:00,0.902,1.460,0.931,1.745,1.192,0.494,0.889,0.844,��,11.3,��
2017/11/26,04:10,0.903,1.459,0.929,1.744,1.189,0.493,0.889,0.845,��,9.5,��
2017/11/26,04:20,0.902,1.459,0.930,1.744,1.191,0.493,0.889,0.844,��,9.5,��
2017/11/26,04:30,0.901,1.460,0.929,1.742,1.193,0.495,0.889,0.845,��,9.1,��
2017/11/26,04:40,0.902,1.460,0.931,1.746,1.193,0.493,0.888,0.846,��,10.0,��
2017/11/26,04:50,0.901,1.461,0.930,1.745,1.189,0.495,0.890,0.845,��,8.5,��
2017/11/26,05:00,0.902,1.455,0.933,1.746,1.191,0.495,0.890,0.846,��,8.6,��
2017/11/26,05:10,0.904,1.461,0.930,1.741,1.191,0.493,0.888,0.845,��,9.7,��
2017/11/26,05:20,0.902,1.460,0.930,1.745,1.192,0.495,0.889,0.845,��,10.8,��
2017/11/26,05:30,0.900,1.461,0.929,1.742,1.191,0.494,0.888,0.844,��,10.0,��
2017/11/26,05:40,0.903,1.460,0.929,1.744,1.191,0.496,0.891,0.844,��,11.4,��
2017/11/26,05:50,0.902,1.460,0.931,1.744,1.191,0.495,0.890,0.844,��,9.1,��
2017/11/26,06:00,0.902,1.457,0.931,1.745,1.191,0.496,0.889,0.844,��쐼,9.0,��
2017/11/26,06:10,0.904,1.459,0.928,1.744,1.192,0.495,0.889,0.847,��쐼,8.1,��
2017/11/26,06:20,0.902,1.458,0.930,1.745,1.191,0.496,0.889,0.846,��쐼,7.5,��
2017/11/26,06:30,0.904,1.461,0.930,1.745,1.188,0.495,0.890,0.844,��쐼,7.5,��
2017/11/26,06:40,0.904,1.461,0.932,1.744,1.190,0.495,0.891,0.844,��쐼,7.5,��
2017/11/26,06:50,0.904,1.461,0.932,1.744,1.192,0.496,0.888,0.845,��,7.4,��
2017/11/26,07:00,0.903,1.459,0.930,1.743,1.192,0.495,0.891,0.844,��,7.5,��
2017/11/26,07:10,0.903,1.461,0.932,1.746,1.192,0.496,0.890,0.845,��,7.3,��
2017/11/26,07:20,0.904,1.460,0.932,1.744,1.189,0.495,0.889,0.844,��,7.8,��
2017/11/26,07:30,0.905,1.462,0.930,1.746,1.193,0.496,0.890,0.845,��,8.2,��
2017/11/26,07:40,0.905,1.460,0.931,1.744,1.190,0.494,0.892,0.844,��,8.1,��
2017/11/26,07:50,0.906,1.460,0.932,1.744,1.192,0.497,0.891,0.847,��,6.6,��
2017/11/26,08:00,0.905,1.462,0.933,1.743,1.193,0.496,0.891,0.844,��,6.0,��
2017/11/26,08:10,0.905,1.460,0.933,1.746,1.192,0.496,0.890,0.844,��,4.8,��
2017/11/26,08:20,0.907,1.462,0.933,1.748,1.194,0.495,0.891,0.845,��,6.6,��
2017/11/26,08:30,0.905,1.463,0.932,1.745,1.191,0.497,0.892,0.847,��,6.4,��
2017/11/26,08:40,0.905,1.462,0.933,1.747,1.192,0.498,0.891,0.845,��,5.3,��
2017/11/26,08:50,0.906,1.464,0.934,1.746,1.190,0.497,0.891,0.848,��,5.7,��
2017/11/26,09:00,0.906,1.461,0.936,1.747,1.193,0.496,0.891,0.847,��,4.8,��
2017/11/26,09:10,0.906,1.465,0.933,1.747,1.195,0.497,0.892,0.848,��,5.0,��
2017/11/26,09:20,0.906,1.465,0.934,1.748,1.194,0.497,0.892,0.846,��쓌,4.8,��
2017/11/26,09:30,0.908,1.467,0.933,1.745,1.194,0.497,0.890,0.847,��쓌,5.8,��
2017/11/26,09:40,0.908,1.464,0.934,1.748,1.193,0.500,0.890,0.845,��,6.2,��
2017/11/26,09:50,0.910,1.466,0.934,1.745,1.195,0.498,0.887,0.847,��쐼,5.9,��
2017/11/26,10:00,0.909,1.469,0.938,1.748,1.194,0.497,0.893,0.846,��쐼,6.8,��
2017/11/26,10:10,0.909,1.469,0.935,1.749,1.194,0.498,0.892,0.846,��쐼,8.8,��
2017/11/26,10:20,0.911,1.466,0.935,1.751,1.196,0.498,0.893,0.848,�쐼,7.3,��
2017/11/26,10:30,0.908,1.470,0.935,1.753,1.195,0.498,0.890,0.847,�쐼,7.9,��
2017/11/26,10:40,0.911,1.468,0.936,1.751,1.195,0.499,0.891,0.848,�쐼,8.2,��
2017/11/26,10:50,0.908,1.466,0.937,1.752,1.196,0.496,0.892,0.847,���쐼,8.0,��
2017/11/26,11:00,0.911,1.467,0.935,1.750,1.196,0.496,0.891,0.847,���쐼,6.3,��
2017/11/26,11:10,0.909,1.467,0.937,1.751,1.196,0.497,0.892,0.847,���쐼,6.5,��
2017/11/26,11:20,0.909,1.468,0.934,1.754,1.195,0.497,0.891,0.849,���쐼,6.7,��
2017/11/26,11:30,0.909,1.469,0.937,1.755,1.195,0.498,0.894,0.848,�쐼,6.7,��
2017/11/26,11:40,0.908,1.466,0.938,1.755,1.198,0.499,0.893,0.849,�쐼,5.7,��
2017/11/26,11:50,0.912,1.467,0.938,1.753,1.197,0.498,0.892,0.849,�쐼,6.5,��
2017/11/26,12:00,0.910,1.469,0.935,1.754,1.196,0.500,0.893,0.850,���쐼,5.3,��
2017/11/26,12:10,0.913,1.468,0.937,1.755,1.198,0.500,0.893,0.851,�쐼,4.9,��
2017/11/26,12:20,0.909,1.467,0.937,1.756,1.197,0.501,0.892,0.846,��쐼,4.5,��
2017/11/26,12:30,0.909,1.469,0.938,1.756,1.196,0.500,0.892,0.847,��쐼,4.8,��
2017/11/26,12:40,0.910,1.471,0.939,1.755,1.198,0.501,0.894,0.845,��쐼,5.8,��
2017/11/26,12:50,0.909,1.469,0.937,1.753,1.199,0.501,0.894,0.847,��쐼,6.9,��
2017/11/26,13:00,0.911,1.463,0.938,1.759,1.198,0.502,0.894,0.847,�쐼,5.0,��
2017/11/26,13:10,0.911,1.470,0.938,1.757,1.199,0.501,0.894,0.845,��,3.7,��
2017/11/26,13:20,0.911,1.469,0.937,1.755,1.197,0.501,0.895,0.847,���k��,5.1,��
2017/11/26,13:30,0.911,1.471,0.936,1.756,1.199,0.502,0.895,0.846,���k��,5.5,��
2017/11/26,13:40,0.912,1.470,0.938,1.754,1.198,0.500,0.893,0.845,��,5.2,��
2017/11/26,13:50,0.912,1.466,0.936,1.756,1.199,0.500,0.894,0.847,���k��,5.8,��
2017/11/26,14:00,0.912,1.467,0.938,1.762,1.200,0.502,0.893,0.847,�k��,7.5,��
2017/11/26,14:10,0.910,1.470,0.937,1.759,1.203,0.501,0.891,0.846,���k��,8.5,��
2017/11/26,14:20,0.912,1.470,0.936,1.757,1.202,0.501,0.893,0.846,���k��,6.8,��
2017/11/26,14:30,0.911,1.467,0.936,1.759,1.203,0.501,0.894,0.846,���k��,4.2,��
2017/11/26,14:40,0.912,1.469,0.936,1.760,1.204,0.501,0.894,0.846,��,4.9,��
2017/11/26,14:50,0.911,1.469,0.938,1.758,1.202,0.500,0.894,0.846,���k��,4.1,��
2017/11/26,15:00,0.909,1.468,0.938,1.757,1.198,0.503,0.892,0.847,���k��,4.8,��
2017/11/26,15:10,0.911,1.471,0.938,1.757,1.199,0.501,0.891,0.846,���k��,4.8,��
2017/11/26,15:20,0.911,1.474,0.936,1.759,1.200,0.499,0.892,0.848,��,3.1,��
2017/11/26,15:30,0.912,1.471,0.939,1.757,1.201,0.499,0.891,0.848,�k��,4.5,��
2017/11/26,15:40,0.909,1.472,0.938,1.757,1.199,0.501,0.893,0.848,�k��,4.2,��
2017/11/26,15:50,0.909,1.472,0.940,1.757,1.199,0.499,0.894,0.850,�k��,4.1,��
2017/11/26,16:00,0.909,1.472,0.939,1.759,1.202,0.501,0.893,0.848,�k�k��,3.5,��
2017/11/26,16:10,0.912,1.469,0.940,1.758,1.201,0.499,0.894,0.850,�k��,3.4,��
2017/11/26,16:20,0.913,1.473,0.940,1.754,1.202,0.500,0.894,0.850,�k��,3.8,��
2017/11/26,16:30,0.911,1.471,0.938,1.757,1.205,0.499,0.892,0.848,���k��,6.2,��
2017/11/26,16:40,0.912,1.473,0.938,1.758,1.201,0.501,0.892,0.851,���k��,7.3,��
2017/11/26,16:50,0.912,1.471,0.940,1.757,1.203,0.500,0.893,0.848,���k��,7.0,��
2017/11/26,17:00,0.912,1.473,0.938,1.756,1.201,0.498,0.894,0.849,��,5.5,��
2017/11/26,17:10,0.912,1.471,0.937,1.759,1.201,0.500,0.893,0.849,��,2.6,��
2017/11/26,17:20,0.911,1.470,0.939,1.760,1.201,0.497,0.892,0.847,��,1.5,��
2017/11/26,17:30,0.913,1.471,0.939,1.759,1.198,0.499,0.894,0.847,���k��,2.8,��
2017/11/26,17:40,0.913,1.470,0.939,1.757,1.198,0.499,0.894,0.849,���k��,4.8,��
2017/11/26,17:50,0.910,1.474,0.938,1.759,1.203,0.499,0.892,0.848,���k��,6.1,��
2017/11/26,18:00,0.911,1.471,0.938,1.755,1.202,0.498,0.893,0.846,�k��,6.0,��
2017/11/26,18:10,0.912,1.473,0.939,1.756,1.199,0.497,0.894,0.847,���k��,7.7,��
2017/11/26,18:20,0.913,1.470,0.938,1.759,1.203,0.499,0.892,0.849,���k��,6.3,��
2017/11/26,18:30,0.913,1.471,0.938,1.758,1.201,0.498,0.895,0.848,�k��,7.5,��
2017/11/26,18:40,0.913,1.474,0.938,1.757,1.200,0.499,0.893,0.848,�k��,6.7,��
2017/11/26,18:50,0.912,1.472,0.936,1.759,1.201,0.499,0.893,0.847,���k��,5.8,��
2017/11/26,19:00,0.913,1.469,0.939,1.758,1.201,0.498,0.892,0.849,�k��,6.7,��
2017/11/26,19:10,0.911,1.473,0.940,1.761,1.203,0.498,0.893,0.848,���k��,5.8,��
2017/11/26,19:20,0.911,1.472,0.939,1.760,1.203,0.499,0.894,0.847,�k��,5.6,��
2017/11/26,19:30,0.910,1.470,0.939,1.755,1.201,0.498,0.893,0.849,�k��,5.0,��
2017/11/26,19:40,0.913,1.472,0.938,1.757,1.199,0.498,0.892,0.848,�k�k��,3.5,��
2017/11/26,19:50,0.912,1.472,0.939,1.759,1.200,0.497,0.895,0.848,�k�k��,4.2,��
2017/11/26,20:00,0.913,1.470,0.938,1.760,1.200,0.498,0.895,0.847,�k�k��,1.5,��
2017/11/26,20:10,0.911,1.470,0.937,1.758,1.202,0.497,0.892,0.848,�k�k��,3.9,��
2017/11/26,20:20,0.912,1.472,0.937,1.758,1.201,0.498,0.893,0.848,�k,3.0,��
2017/11/26,20:30,0.911,1.473,0.937,1.758,1.200,0.498,0.892,0.846,�k,4.5,��
2017/11/26,20:40,0.911,1.476,0.939,1.758,1.198,0.497,0.893,0.849,�k,5.1,��
2017/11/26,20:50,0.912,1.474,0.938,1.759,1.200,0.498,0.893,0.847,�k,4.4,��
2017/11/26,21:00,0.911,1.470,0.939,1.757,1.201,0.497,0.894,0.848,�k,6.6,��
2017/11/26,21:10,0.913,1.472,0.937,1.760,1.200,0.496,0.893,0.848,�k�k��,7.6,��
2017/11/26,21:20,0.910,1.472,0.938,1.757,1.201,0.498,0.893,0.849,�k,6.3,��
2017/11/26,21:30,0.910,1.473,0.938,1.757,1.201,0.497,0.892,0.850,�k,6.7,��
2017/11/26,21:40,0.911,1.473,0.937,1.761,1.201,0.497,0.893,0.847,�k,5.2,��
2017/11/26,21:50,0.911,1.472,0.937,1.759,1.203,0.498,0.891,0.847,�k,6.8,��
2017/11/26,22:00,0.912,1.474,0.938,1.757,1.200,0.496,0.890,0.848,�k,8.9,��
2017/11/26,22:10,0.910,1.472,0.939,1.759,1.202,0.498,0.892,0.850,�k,8.0,��
2017/11/26,22:20,0.910,1.472,0.938,1.759,1.201,0.497,0.890,0.847,�k,9.0,��
2017/11/26,22:30,0.911,1.471,0.937,1.759,1.202,0.498,0.891,0.847,�k,9.2,��
2017/11/26,22:40,0.910,1.473,0.937,1.758,1.199,0.497,0.890,0.849,�k�k��,7.0,��
2017/11/26,22:50,0.909,1.473,0.937,1.756,1.201,0.497,0.891,0.849,�k�k��,7.3,��
2017/11/26,23:00,0.908,1.471,0.937,1.758,1.201,0.495,0.892,0.848,�k�k��,5.3,��
2017/11/26,23:10,0.909,1.471,0.937,1.759,1.200,0.497,0.889,0.848,�k�k��,6.1,��
2017/11/26,23:20,0.911,1.474,0.936,1.757,1.200,0.498,0.893,0.848,�k�k��,5.6,��
2017/11/26,23:30,0.909,1.473,0.936,1.757,1.199,0.497,0.889,0.844,�k�k��,6.1,��
2017/11/26,23:40,0.908,1.470,0.933,1.760,1.202,0.496,0.890,0.847,�k�k��,6.7,��
2017/11/26,23:50,0.910,1.470,0.937,1.755,1.202,0.497,0.890,0.848,�k,6.7,��
